SCP
1 1 0 0 0 0 0 0 0 0 0 0 0 0 0 0 0 0 0 0 0 0 0 0 0 0 0 0 0 0 0 0 0 0 0 1 1 1
1 1 0 0 0 0 0 0 0 0 0 0 0 0 0 0 0 0 0 0 0 0 0 0 0 0 0 0 0 0 0 0 0 0 0 0 0 0
1 0 0 0 0 0 0 0 0 0 0 0 0 0 0 0 0 0 0 0 0 0 0 0 0 0 0 0 0 0 0 0 0 0 0 0 0 0
0 0 0 0 0 0 0 0 0 0 0 0 0 0 0 0 0 0 0 0 0 0 0 0 0 0 0 0 0 0 0 0 0 0 0 0 0 0
0 0 0 0 0 0 0 0 0 0 0 0 0 0 0 0 0 0 0 0 0 0 0 0 0 0 0 0 0 0 0 0 0 0 0 0 0 0
0 0 0 0 0 0 0 0 0 0 0 0 0 0 0 0 0 0 0 0 0 0 0 0 0 0 0 0 0 0 0 0 0 0 0 0 0 0
0 0 0 0 0 0 0 0 0 0 0 0 0 0 0 0 0 0 0 0 0 0 0 0 0 0 0 0 0 0 0 0 0 0 0 0 0 0
0 0 0 0 0 0 0 0 0 0 0 0 0 0 0 0 0 0 0 0 0 0 0 0 0 0 0 0 0 0 0 0 0 0 0 0 0 0
0 0 0 0 0 0 0 0 0 0 0 0 0 0 0 0 0 0 0 0 0 0 0 0 0 0 0 0 0 0 0 0 0 0 0 0 0 0
0 0 0 0 0 0 0 0 0 0 0 0 0 0 0 0 0 0 0 0 0 0 0 0 0 0 0 0 0 0 0 0 0 0 0 0 0 0
0 0 0 0 0 0 0 0 0 0 0 0 0 0 0 0 0 0 0 0 0 0 0 0 0 0 0 0 0 0 0 0 0 0 0 0 0 0
0 0 0 0 0 0 0 0 0 0 0 0 0 0 0 0 0 0 0 0 0 0 0 0 0 0 0 0 0 0 0 0 0 0 0 0 0 0
0 0 0 0 0 0 0 0 0 0 0 0 0 0 0 0 0 0 0 0 0 0 0 0 0 0 0 0 0 0 0 0 0 0 0 0 0 0
0 0 0 0 0 0 0 0 0 0 0 0 0 0 0 0 0 0 0 0 0 0 0 0 0 0 0 0 0 0 0 0 0 0 0 0 0 0
0 0 0 0 0 0 0 0 0 0 0 0 0 0 0 0 0 0 0 0 0 0 0 0 0 0 0 0 0 0 0 0 0 0 0 0 0 0
0 0 0 0 0 0 0 0 0 0 0 0 0 0 0 0 0 0 0 0 0 0 0 0 0 0 0 0 0 0 0 0 0 0 0 0 0 0
0 0 0 0 0 0 0 0 0 0 0 0 0 0 0 0 0 0 0 0 0 0 0 0 0 0 0 0 0 0 0 0 0 0 0 0 0 0
0 0 0 0 0 0 0 0 0 0 0 0 0 0 0 0 0 0 0 0 0 0 0 0 0 0 0 0 0 0 0 0 0 0 0 0 0 0
0 0 0 0 0 0 0 0 0 0 0 0 0 0 0 0 0 0 0 0 0 0 0 0 0 0 0 0 0 0 0 0 0 0 0 0 0 0
0 0 0 0 0 0 0 0 0 0 0 0 0 0 0 0 0 0 0 0 0 0 0 0 0 0 0 0 0 0 0 0 0 0 0 0 0 0
0 0 0 0 0 0 0 0 0 0 0 0 0 0 0 0 0 0 0 0 0 0 0 0 0 0 0 0 0 0 0 0 0 0 0 0 0 0
0 0 0 0 0 0 0 0 0 0 0 0 0 0 0 0 0 0 0 0 0 0 0 0 0 0 0 0 0 0 0 0 0 0 0 0 0 0
0 0 0 0 0 0 0 0 0 0 0 0 0 0 0 0 0 0 0 0 0 0 0 0 0 0 0 0 0 0 0 0 0 0 0 0 0 0
Wind_Speed
2 2 2 2 2 1 2 2 3 2 3 3 2 2 1 2 3 2 2 5 5 5 5 5 5 5 5 5 5 5 5 6 5 5 6 6 7 8
2 1 2 2 2 1 1 1 2 3 3 3 3 2 2 3 4 3 3 5 6 6 7 6 6 6 6 5 5 5 5 5 5 6 6 6 7 7
2 1 2 2 1 1 1 1 1 2 2 3 2 2 2 3 3 3 3 3 4 7 7 7 7 7 6 6 6 5 5 5 5 5 6 6 6 6
2 2 2 2 1 2 1 1 2 2 2 3 3 2 3 3 3 3 3 3 3 6 8 7 7 7 6 6 6 6 5 5 5 5 5 5 5 6
2 2 2 2 2 2 2 2 2 2 1 2 3 2 2 2 2 3 3 2 3 4 6 7 7 7 7 6 6 6 6 5 5 5 5 5 5 5
3 3 3 3 3 3 2 3 2 2 1 1 2 2 2 2 1 2 2 2 3 3 4 4 5 6 7 7 7 7 7 7 6 6 6 5 5 5
3 3 4 4 5 4 3 3 2 2 1 2 2 2 2 2 2 2 2 3 3 2 2 2 2 2 3 5 7 8 8 7 7 7 7 7 6 6
4 4 4 4 4 5 5 4 4 3 3 2 3 3 4 3 2 2 2 1 3 2 1 3 2 3 3 3 6 7 8 8 8 8 8 7 7 7
4 4 4 3 3 3 4 5 4 5 6 4 4 5 4 4 2 2 2 2 4 3 1 3 2 3 4 4 7 7 7 7 7 7 7 7 7 7
4 4 3 4 4 3 3 3 4 4 4 4 5 6 5 4 4 3 3 2 3 2 2 2 2 3 3 3 5 7 7 7 7 7 7 7 6 7
4 3 3 3 5 4 2 3 5 5 5 5 6 7 8 8 5 2 1 1 2 3 1 2 2 2 2 3 4 6 7 7 7 6 7 7 7 6
4 3 4 4 5 4 2 3 4 5 4 4 4 5 5 6 6 5 4 3 2 3 2 2 2 1 2 3 2 2 3 5 6 7 7 7 6 3
3 3 4 6 6 5 4 4 6 6 3 3 4 4 3 3 3 4 4 4 4 4 3 3 2 1 2 2 2 2 2 2 2 4 6 8 8 6
4 4 4 7 7 7 5 6 8 5 2 2 3 3 3 3 3 4 5 5 6 6 5 4 3 3 2 2 3 2 2 2 3 3 3 4 5 8
4 6 7 8 8 6 7 8 6 3 2 3 4 4 4 4 3 2 3 3 4 6 6 5 5 3 3 3 3 2 2 3 3 3 3 3 3 3
4 5 8 8 6 6 6 5 3 3 3 4 4 4 3 2 2 2 2 2 2 4 4 5 5 5 4 4 4 4 3 3 3 3 3 3 3 4
2 2 2 3 3 4 4 4 3 2 3 3 3 4 3 3 3 2 2 2 2 3 4 4 3 4 5 4 3 4 4 4 4 4 3 3 4 5
1 2 3 4 4 4 4 4 3 3 3 3 3 3 4 4 3 2 2 2 3 4 4 4 2 1 1 3 7 6 4 4 3 3 3 3 5 4
1 3 4 4 4 4 4 4 4 4 3 3 3 3 3 3 3 3 3 3 4 4 4 3 2 2 2 4 5 6 5 4 3 3 3 4 5 5
2 4 5 5 4 4 4 4 4 4 3 3 3 3 3 3 3 3 3 4 4 4 4 3 3 4 5 5 4 4 7 6 4 4 3 3 3 4
3 4 4 4 4 4 4 4 4 3 3 3 3 3 3 3 3 4 4 5 4 3 4 4 5 6 3 1 2 4 4 7 7 5 4 3 2 2
4 4 4 4 3 3 3 3 3 3 3 3 3 3 3 3 4 5 4 4 4 4 4 4 3 2 2 3 5 5 5 4 6 9 9 8 5 5
4 3 3 3 3 3 3 3 4 3 3 3 3 4 4 4 4 4 4 4 3 3 3 3 3 2 3 4 5 4 5 5 3 2 4 8 11 11
Wind_Direction
276 274 269 278 281 252 214 186 183 247 278 270 270 266 258 247 251 248 245 246 254 258 261 263 270 274 278 275 270 269 273 263 258 260 254 245 238 231
281 289 288 279 286 281 254 217 190 195 243 257 250 259 261 264 255 247 247 253 255 258 259 257 259 266 269 271 268 262 263 259 255 254 251 244 239 232
311 313 297 287 286 295 284 236 220 193 237 276 267 266 250 260 269 259 255 249 254 254 256 256 254 255 257 259 260 260 258 260 260 257 251 247 240 232
304 317 305 308 300 284 270 257 253 227 215 267 285 279 263 256 252 257 261 252 245 252 253 255 253 252 252 251 250 250 251 255 261 263 258 253 244 235
280 284 284 295 295 285 275 263 260 261 224 234 272 275 276 271 272 273 268 272 260 254 252 254 252 253 249 247 244 243 243 244 252 256 256 254 251 244
280 268 263 255 258 265 269 264 260 269 258 239 266 279 277 277 250 263 286 279 272 268 263 253 252 251 247 246 244 243 241 239 242 246 246 243 241 239
297 281 268 264 260 257 259 252 241 239 247 247 260 279 280 277 258 249 259 279 277 251 264 266 261 260 254 250 245 243 242 241 240 241 239 236 232 228
285 291 290 281 286 287 280 267 239 224 224 227 247 251 261 256 252 248 246 274 283 261 219 270 236 255 255 243 245 243 240 238 237 237 234 229 226 220
272 279 295 298 295 287 294 302 291 259 232 216 229 242 245 244 233 247 237 232 246 252 211 265 253 253 258 251 245 243 241 239 236 233 229 225 223 218
272 261 261 276 279 267 278 297 294 283 264 232 228 240 240 235 221 223 230 251 270 261 188 238 259 255 266 256 247 239 235 232 231 232 231 226 223 220
290 280 264 266 273 266 260 285 298 296 284 257 245 249 251 250 236 214 217 207 281 284 210 201 254 275 280 264 253 241 232 230 231 232 234 233 225 219
303 299 288 278 277 263 235 254 282 289 304 311 301 291 270 260 243 212 203 199 224 266 245 191 235 240 295 280 264 253 239 239 236 236 235 233 224 208
290 295 294 299 291 273 252 238 253 273 291 292 295 294 288 271 253 222 207 200 203 236 233 180 210 207 218 272 285 258 228 237 242 245 237 231 221 201
269 276 283 295 297 287 273 261 267 278 274 286 290 285 278 270 260 241 223 218 219 229 232 190 203 205 207 248 265 264 249 235 223 234 234 232 229 220
265 272 281 287 292 290 277 274 276 258 245 257 264 266 258 255 259 263 256 239 246 250 244 219 211 212 199 219 242 246 258 254 220 220 225 219 215 208
286 294 294 287 282 277 283 285 262 238 229 243 256 264 271 267 256 246 249 250 265 282 266 232 216 205 218 229 230 244 233 232 231 222 223 233 229 213
309 317 317 318 315 305 297 288 276 263 249 248 253 269 271 266 263 249 233 230 228 260 282 280 247 221 218 212 231 244 241 242 237 223 212 238 243 227
330 292 295 292 285 284 288 293 290 281 266 253 253 254 261 261 259 251 228 228 240 249 255 261 263 278 296 262 223 230 238 240 241 221 203 223 253 242
224 273 279 282 282 281 279 276 280 281 275 266 263 262 261 262 258 254 247 245 250 254 256 248 223 202 230 269 272 221 213 229 224 230 219 214 233 242
239 261 272 278 277 276 278 277 280 286 282 273 266 266 264 259 260 262 257 251 254 258 263 253 229 215 218 235 251 261 222 212 210 223 233 231 246 253
269 267 268 271 273 274 276 276 275 274 273 270 269 270 268 265 265 262 260 260 253 250 255 256 250 236 226 213 265 274 267 227 212 206 201 206 238 251
268 270 276 276 277 279 280 281 284 281 279 271 272 273 271 265 264 267 266 260 253 248 252 261 267 240 195 221 247 259 271 277 242 232 220 200 190 205
268 272 278 283 281 281 282 284 284 286 285 282 280 276 272 269 267 265 265 262 262 261 263 270 277 256 237 232 244 252 261 267 262 249 253 240 230 234